This demonstration page uses our WeatherBlox Daily Observations layout. Learn more.

Left ArrowRight Arrow

40.92945, -100.16068

Hourly Observations for March 31, 2021

Temp ( °F °C ) Dew Point ( °F °C ) Humidity (%) Winds ( mph kmh ) Pressure ( in mb ) Visibility ( mi km ) Precip ( " mm )
12:15 am 00:15 Clear 29 -1.9 17 -8.1 63 63 N 8 13 30.39 1029 10 16 N/A
12:35 am 00:35 Partly Cloudy 28 -2.4 18 -7.9 66 66 N 7 11 30.39 1029 10 16 N/A
12:55 am 00:55 Mostly Cloudy 28 -2.5 18 -7.6 68 68 NNW 7 11 30.41 1030 10 16 N/A
1:15 am 01:15 Partly Cloudy 26 -3.5 19 -7.4 75 75 NNW 5 7 30.42 1030 10 16 N/A
1:35 am 01:35 Clear 28 -2.5 17 -8.5 64 64 NNW 5 7 30.42 1030 10 16 N/A
1:55 am 01:55 Clear 27 -3 17 -8.5 66 66 N 6 9 30.44 1031 10 16 N/A
2:15 am 02:15 Clear 27 -3 16 -8.8 65 65 N 8 13 30.45 1031 10 16 N/A
2:35 am 02:35 Clear 27 -3 16 -9.1 63 63 N 8 13 30.45 1031 10 16 N/A
2:55 am 02:55 Clear 27 -2.7 15 -9.4 60 60 N 6 9 30.46 1031 10 16 N/A
3:15 am 03:15 Clear 26 -3.1 16 -9.1 64 64 N 7 11 30.46 1031 10 16 N/A
3:35 am 03:35 Clear 26 -3.2 15 -9.5 62 62 N 6 9 30.46 1032 10 16 N/A
3:55 am 03:55 Clear 25 -4.1 16 -9.1 69 69 N N/A 30.48 1032 10 16 N/A
4:15 am 04:15 Clear 24 -4.3 14 -10 65 65 W 3 6 30.48 1032 10 16 N/A
4:35 am 04:35 Clear 23 -4.8 17 -8.5 76 76 W 6 9 30.50 1033 10 16 N/A
4:55 am 04:55 Clear 22 -5.3 16 -9.1 75 75 NW 7 11 30.50 1033 10 16 N/A
5:15 am 05:15 Clear 22 -5.6 14 -9.8 73 73 WNW 6 9 30.51 1033 10 16 N/A
5:35 am 05:35 Clear 22 -5.3 16 -8.8 77 77 NW 5 7 30.51 1033 10 16 N/A
5:55 am 05:55 Clear 21 -6.3 15 -9.6 78 78 WNW 7 11 30.53 1034 10 16 N/A
6:15 am 06:15 Clear 21 -6.3 15 -9.5 78 78 WNW 5 7 30.53 1034 10 16 N/A
6:35 am 06:35 Clear 21 -6 16 -9 80 80 WNW 5 7 30.54 1034 10 16 N/A
6:55 am 06:55 Clear 21 -6.2 15 -9.2 80 80 W 5 7 30.55 1035 10 16 N/A
7:15 am 07:15 Clear 20 -6.6 16 -9 83 83 WNW 5 7 30.57 1035 10 16 N/A
7:35 am 07:35 Partly Cloudy 20 -6.7 16 -9.1 83 83 NW 6 9 30.58 1035 10 16 N/A
7:55 am 07:55 Mostly Cloudy 21 -6.1 16 -8.8 81 81 N N/A 30.57 1035 7 11 N/A
8:15 am 08:15 Mostly Cloudy 23 -4.9 17 -8.1 79 79 WNW 5 7 30.57 1035 7 11 N/A
8:35 am 08:35 Partly Cloudy 25 -4 17 -8.2 73 73 WNW 6 9 30.57 1035 10 16 N/A
8:55 am 08:55 Partly Cloudy 26 -3.4 18 -8 71 71 WNW 5 7 30.56 1035 10 16 N/A
9:15 am 09:15 Partly Cloudy 28 -2 18 -7.6 66 66 WNW 6 9 30.56 1035 10 16 N/A
9:35 am 09:35 Partly Cloudy 31 -0.7 18 -7.9 59 59 NW 6 9 30.55 1034 10 16 N/A
9:55 am 09:55 Sunny 32 0.1 16 -8.7 52 52 W 3 6 30.54 1034 10 16 N/A
10:15 am 10:15 Sunny 34 1 15 -9.6 45 45 W 7 11 30.53 1034 10 16 N/A
10:35 am 10:35 Partly Cloudy 35 1.7 13 -10.4 41 41 W 6 9 30.53 1034 10 16 N/A
10:55 am 10:55 Mostly Cloudy 36 2.4 13 -10.6 38 38 WSW 6 9 30.53 1034 10 16 N/A
11:15 am 11:15 Partly Cloudy 38 3.2 12 -11.2 34 34 WSW 8 13 30.53 1034 10 16 N/A
11:35 am 11:35 Mostly Cloudy 38 3.6 13 -10.7 35 35 W 10 17 30.52 1034 10 16 N/A
11:55 am 11:55 Mostly Cloudy 39 4.1 13 -10.4 34 34 W 8 13 30.52 1033 10 16 N/A
12:15 pm 12:15 Mostly Cloudy 41 5.1 15 -9.4 35 35 WNW 10 17 30.51 1033 10 16 N/A
12:35 pm 12:35 Mostly Cloudy 43 6.1 17 -8.4 35 35 W 15 24 30.49 1032 10 16 N/A
12:55 pm 12:55 Partly Cloudy 45 7 18 -7.8 34 34 NW 16 26 30.47 1032 10 16 N/A
1:15 pm 13:15 Mostly Cloudy 46 7.6 19 -7.1 35 35 WNW 17 28 30.46 1032 10 16 N/A
1:35 pm 13:35 Mostly Cloudy 46 7.7 18 -7.9 32 32 WNW 12 19 30.44 1031 10 16 N/A
1:55 pm 13:55 Cloudy 47 8.4 20 -6.4 35 35 WNW 26 43 30.44 1031 10 16 N/A
2:15 pm 14:15 Cloudy 47 8.2 19 -7 34 34 WNW 21 33 30.44 1031 10 16 N/A
2:35 pm 14:35 Cloudy 46 7.9 21 -6.1 37 37 WNW 16 26 30.44 1031 10 16 N/A
2:55 pm 14:55 Cloudy 47 8.2 21 -6 36 36 NW 21 33 30.44 1031 10 16 N/A
3:15 pm 15:15 Cloudy 47 8.2 21 -5.9 37 37 NW 20 31 30.44 1031 10 16 N/A
3:35 pm 15:35 Cloudy 47 8.1 19 -7.5 33 33 WNW 18 30 30.43 1030 10 16 N/A
3:55 pm 15:55 Mostly Cloudy 49 9.2 19 -7.2 31 31 NNW 20 31 30.42 1030 10 16 N/A
4:15 pm 16:15 Mostly Cloudy 48 8.8 20 -6.9 33 33 NNW 24 39 30.42 1030 10 16 N/A
4:35 pm 16:35 Mostly Cloudy 48 9 21 -6 34 34 NNW 21 33 30.42 1030 7 11 N/A
4:55 pm 16:55 Mostly Cloudy 49 9.2 20 -6.7 32 32 NW 18 30 30.42 1030 10 16 N/A
5:15 pm 17:15 Partly Cloudy 49 9.6 20 -6.7 31 31 NNW 21 33 30.41 1030 10 16 N/A
5:35 pm 17:35 Partly Cloudy 49 9.4 16 -8.8 27 27 NNW 23 37 30.41 1030 10 16 N/A
5:55 pm 17:55 Sunny 49 9.5 17 -8.4 28 28 N 18 30 30.42 1030 10 16 N/A
6:15 pm 18:15 Sunny 49 9.4 16 -8.9 27 27 NNW 20 31 30.42 1030 10 16 N/A
6:35 pm 18:35 Sunny 49 9.2 15 -9.6 26 26 N 18 30 30.42 1030 10 16 N/A
6:55 pm 18:55 Sunny 48 8.9 14 -10 25 25 N 16 26 30.43 1031 10 16 N/A
7:15 pm 19:15 Sunny 47 8.4 13 -10.5 25 25 N 17 28 30.45 1031 10 16 N/A
7:35 pm 19:35 Sunny 46 7.5 13 -10.5 27 27 N 9 15 30.45 1031 10 16 N/A
7:55 pm 19:55 Sunny 43 6.2 14 -9.8 31 31 N 9 15 30.48 1032 10 16 N/A
8:15 pm 20:15 Clear 41 5.1 13 -10.3 32 32 NE 7 11 30.49 1032 10 16 N/A
8:35 pm 20:35 Clear 38 3.2 14 -10 38 38 NE 7 11 30.51 1033 10 16 N/A
8:55 pm 20:55 Clear 37 2.9 14 -10.1 38 38 NE 7 11 30.52 1034 10 16 N/A
9:15 pm 21:15 Clear 36 2.2 13 -10.3 39 39 NE 7 11 30.54 1034 10 16 N/A
9:35 pm 21:35 Clear 35 1.4 15 -9.3 45 45 ENE 5 7 30.54 1034 10 16 N/A
9:55 pm 21:55 Clear 35 1.5 13 -10.4 41 41 N N/A 30.55 1035 10 16 N/A
10:15 pm 22:15 Clear 31 -0.7 17 -8.3 57 57 N N/A 30.59 1036 10 16 N/A
10:35 pm 22:35 Clear 30 -1 18 -7.9 60 60 N N/A 30.59 1036 10 16 N/A
10:55 pm 22:55 Clear 30 -0.9 19 -7 64 64 N N/A 30.59 1036 10 16 N/A
11:15 pm 23:15 Clear 31 -0.7 17 -8.1 58 58 N N/A 30.59 1036 10 16 N/A
11:35 pm 23:35 Clear 29 -1.4 18 -7.8 62 62 ESE 3 6 30.59 1036 10 16 N/A
11:55 pm 23:55 Clear 29 -1.7 18 -8 63 63 SSE 3 6 30.60 1036 10 16 N/A

Powered by AerisWeather